Temperature
20 20 20 20 19 19 20 21 22 22 22 22 22 21 20 19 19 19 19 19 19 19 19 19 19 19 19 19 19 19 19 19 19 19 19 19 19 19 19 19 19 19 19 19 19 19 19 19 19
20 20 20 20 19 19 20 21 21 22 23 22 21 21 20 19 19 19 19 18 19 19 19 19 19 19 19 19 19 19 19 19 19 19 19 19 19 19 19 19 19 19 19 19 19 19 19 19 19
21 20 20 18 19 20 21 21 22 23 23 22 20 20 19 19 19 19 18 18 19 19 19 19 19 19 19 19 19 19 19 19 19 19 19 19 19 19 19 19 19 19 19 19 19 19 19 19 19
21 21 21 19 20 20 21 21 22 23 23 22 20 19 19 19 19 18 18 18 19 19 18 18 19 19 19 19 19 19 19 19 19 19 19 19 19 19 19 19 19 19 19 19 19 19 19 19 19
21 21 19 20 20 21 21 22 23 22 22 21 20 18 18 18 19 19 18 19 19 19 18 18 18 18 18 18 18 18 18 18 18 19 19 19 19 19 19 19 19 19 19 19 19 19 19 19 19
22 20 19 20 20 21 21 22 22 22 21 21 20 18 18 18 19 19 19 19 19 18 18 18 18 18 18 18 18 18 18 18 18 18 18 18 18 18 19 19 19 19 19 19 19 19 19 19 19
21 19 20 20 20 21 22 22 22 21 21 21 20 18 18 19 19 19 19 18 18 18 18 18 18 17 17 17 17 17 17 17 18 18 18 18 18 18 18 18 18 18 18 18 19 19 19 19 19
23 19 20 20 20 21 22 23 22 22 21 21 21 19 18 19 19 19 18 18 18 18 18 17 17 17 17 17 17 17 17 17 17 17 17 17 18 18 18 18 18 18 18 18 18 18 18 18 19
22 19 20 20 20 21 22 22 22 22 21 21 20 20 20 19 19 19 18 18 18 18 17 17 17 17 16 16 16 16 16 16 16 16 17 17 17 17 17 18 18 18 18 18 18 18 18 18 18
21 19 20 21 21 21 22 22 22 21 20 20 20 20 19 19 19 19 18 18 18 18 17 17 17 16 16 16 16 16 16 16 16 16 16 16 16 17 17 17 17 17 18 18 18 18 18 18 18
20 20 20 21 22 22 22 22 22 20 19 20 20 20 19 19 19 19 18 18 18 17 17 17 16 16 16 16 15 15 15 15 15 16 16 16 16 16 16 17 17 17 17 17 18 18 18 18 18
20 20 21 21 23 23 22 22 21 21 21 21 20 20 20 19 19 19 18 18 17 17 17 16 16 16 15 15 15 15 15 15 15 15 15 15 16 16 16 16 16 16 17 17 17 17 17 18 18
20 20 21 22 22 23 22 22 21 21 21 21 20 20 20 19 19 18 18 18 17 17 16 16 15 15 15 15 15 15 15 15 15 15 15 15 15 15 15 16 16 16 16 16 17 17 17 17 18
20 20 21 21 22 22 21 21 20 20 21 21 20 20 20 20 19 19 18 18 17 17 16 16 15 15 15 14 14 14 14 14 14 14 15 15 15 15 15 15 15 16 16 16 16 16 17 17 17
21 20 20 20 21 21 21 20 20 21 21 21 20 20 20 19 19 19 18 18 17 16 16 15 15 15 14 14 14 14 14 14 14 14 14 14 14 15 15 15 15 15 15 16 16 16 16 17 17
20 19 19 20 20 20 20 20 20 21 21 20 20 20 20 19 19 18 18 17 17 16 16 15 15 14 14 14 14 14 14 14 14 14 14 14 14 14 14 14 15 15 15 15 15 16 16 16 17
19 19 20 20 20 20 20 19 19 21 21 20 20 20 19 19 18 18 17 17 16 16 15 15 15 14 14 14 14 14 14 14 13 14 14 14 14 14 14 14 14 14 15 15 15 15 15 16 16
20 19 20 20 20 20 19 19 19 20 20 20 20 20 19 18 18 17 17 17 16 16 15 15 14 14 14 13 13 13 13 13 13 13 13 13 14 14 14 14 14 14 14 14 15 15 15 15 16
20 20 20 21 22 21 20 19 19 19 20 20 20 19 19 18 18 17 17 16 16 16 15 15 14 14 13 13 13 13 13 13 13 13 13 13 13 13 13 14 14 14 14 14 14 14 15 15 15
21 20 21 21 22 21 20 20 19 19 19 20 20 19 19 18 17 17 17 16 16 15 15 14 14 13 13 13 13 13 12 12 12 13 13 13 13 13 13 13 13 14 14 14 14 14 14 15 15
21 20 21 21 22 21 21 19 19 19 20 20 20 20 19 18 18 17 17 16 16 15 15 14 14 13 13 13 13 13 12 12 12 12 13 13 13 13 13 13 13 13 13 13 14 14 14 14 14
21 22 22 22 20 19 20 18 18 19 19 19 19 19 19 18 18 17 17 16 16 15 15 14 13 13 13 13 12 12 12 12 12 12 12 12 12 12 12 13 13 13 13 13 13 13 14 14 14
21 22 22 22 20 19 19 17 17 18 18 18 18 19 19 19 18 17 17 16 16 15 15 14 13 13 13 13 12 12 12 12 12 12 12 12 12 12 12 12 13 13 13 13 13 13 13 13 14
22 21 19 17 17 18 19 18 18 17 18 18 18 19 19 18 18 17 17 16 16 15 15 14 13 13 13 13 12 12 12 12 12 12 12 12 12 12 12 12 12 12 13 13 13 13 13 13 13
21 18 17 18 16 18 19 18 17 18 19 18 18 19 19 18 18 17 17 16 16 15 15 14 14 13 13 13 12 12 12 12 12 12 12 12 12 12 12 12 12 12 12 13 13 13 13 13 13
21 18 18 18 18 17 19 19 18 19 19 20 20 19 19 18 18 18 17 16 16 15 15 14 14 13 13 13 12 12 12 12 12 12 12 12 12 12 12 12 12 12 12 12 13 13 13 13 13
22 19 17 17 18 18 18 19 19 19 19 19 19 19 19 19 18 18 17 16 16 15 15 14 14 13 13 13 12 12 12 12 12 12 11 11 12 12 12 12 12 12 12 12 12 13 13 13 13
21 19 16 17 18 18 19 19 17 18 18 18 18 18 19 19 18 18 17 17 16 16 15 14 14 14 13 13 13 12 12 12 12 12 12 12 12 12 12 12 12 12 12 12 12 13 13 13 13
22 21 17 15 15 17 18 18 18 18 18 18 18 19 19 19 18 18 17 17 16 16 15 15 14 14 13 13 13 13 12 12 12 12 12 12 12 12 12 12 12 12 12 12 12 12 12 13 13
21 21 17 17 18 16 15 17 19 18 18 19 19 20 20 19 19 18 18 17 16 16 15 15 15 14 14 13 13 13 12 12 12 12 12 12 12 12 12 12 12 12 12 12 12 12 12 12 13
Wind_Speed
12 8 3 1 2 3 2 3 1 3 4 5 10 10 8 6 5 5 1 4 10 9 11 12 12 10 9 8 8 7 7 6 6 5 5 4 4 4 4 4 3 3 3 3 3 3 3 3 3
8 5 2 2 3 2 2 3 2 3 6 7 9 9 8 6 5 4 2 6 10 10 10 10 11 10 9 8 7 6 6 6 5 5 5 4 4 4 4 3 3 3 3 2 2 2 2 1 1
6 4 2 2 2 3 2 3 1 4 6 5 5 6 5 3 3 2 2 7 8 7 8 9 9 8 8 7 6 5 5 5 5 5 5 5 5 5 5 5 4 4 4 3 3 3 2 1 1
3 2 2 3 2 1 3 3 3 6 6 6 6 6 4 4 2 3 6 8 8 6 6 7 8 7 6 5 5 5 5 5 5 5 6 6 6 6 6 6 6 6 5 5 5 5 4 3 2
2 3 3 2 1 1 0 1 3 6 4 5 7 6 4 3 5 6 7 7 7 5 5 6 6 6 6 5 4 4 5 5 6 6 7 7 7 8 8 8 8 8 7 7 6 6 5 5 4
2 3 3 1 1 1 1 3 5 8 7 6 7 6 3 1 4 4 5 5 6 5 4 4 4 4 4 4 4 4 5 6 6 6 7 8 8 9 9 9 9 9 9 9 8 7 7 7 6
2 3 2 3 2 0 1 3 5 6 6 4 5 6 3 2 3 4 4 5 4 4 3 2 1 1 2 3 4 5 5 7 8 8 8 8 9 10 10 10 10 11 11 11 10 10 9 8 8
3 4 2 2 3 2 2 3 4 6 5 3 4 6 5 4 5 5 5 4 3 2 2 1 0 1 2 3 5 5 6 7 8 9 10 10 10 10 10 10 10 11 12 12 12 11 11 10 10
4 4 1 4 5 4 3 4 3 5 6 5 4 5 6 8 7 5 4 2 2 2 1 1 1 2 2 4 5 6 6 6 7 8 9 9 8 8 8 10 11 12 12 12 13 12 12 11 11
4 2 3 3 4 5 4 5 6 5 7 5 5 5 8 8 7 6 4 3 2 2 1 1 1 2 3 4 5 5 6 7 7 8 8 8 7 7 8 9 10 11 11 12 13 13 13 12 9
3 4 2 1 2 3 4 4 4 9 5 7 9 9 8 7 6 6 5 4 3 2 3 2 2 2 2 2 4 4 5 6 6 7 8 7 6 6 7 6 7 7 8 8 9 10 9 8 7
3 1 2 2 2 2 4 4 4 6 8 10 10 10 8 8 7 6 6 5 4 4 4 3 3 3 4 4 3 3 3 3 4 6 7 5 3 3 3 3 4 4 4 4 4 4 6 7 8
4 2 1 2 1 3 5 4 6 6 9 10 10 9 9 9 7 6 7 6 5 4 3 3 4 4 3 3 3 4 3 3 4 5 5 4 2 3 3 3 3 4 4 3 3 3 4 5 5
6 5 2 1 1 2 5 3 6 6 9 10 10 9 9 9 9 7 7 6 5 4 2 2 3 4 4 4 4 3 4 4 4 4 5 4 2 2 3 3 4 3 4 4 3 4 4 4 4
5 4 1 1 0 0 4 2 6 9 10 10 10 9 8 7 8 9 7 6 5 4 3 2 3 4 5 5 5 4 4 5 3 3 4 4 3 2 2 2 3 3 4 4 3 4 3 3 3
4 3 1 3 2 1 3 5 6 9 10 9 8 8 7 6 8 7 7 6 5 4 3 3 5 5 5 4 4 3 4 4 3 4 5 5 4 3 2 2 3 3 3 2 3 3 3 3 3
3 1 3 3 5 3 4 6 5 8 9 9 8 7 7 6 6 6 6 6 5 5 4 3 4 4 4 4 4 4 4 4 4 4 4 5 6 5 2 2 3 2 1 2 3 2 3 3 3
3 2 2 4 5 6 6 7 6 8 8 8 7 7 7 8 7 6 6 6 5 4 4 3 3 3 3 4 4 4 5 4 4 4 4 5 5 5 3 2 3 2 1 1 2 2 2 3 3
6 3 2 5 7 7 8 8 9 9 7 7 6 6 7 8 6 5 6 6 5 5 5 3 3 3 3 3 3 3 4 4 4 4 5 5 5 5 3 3 3 2 1 2 2 2 2 2 2
5 2 1 3 4 7 6 6 6 9 9 9 9 9 9 8 6 5 5 5 5 4 4 3 3 2 2 1 2 2 3 3 3 4 5 6 5 5 3 3 2 2 1 2 1 1 1 1 2
2 4 5 5 1 1 2 5 1 3 5 5 6 8 10 11 9 7 6 5 5 4 3 3 2 1 2 2 2 3 3 3 4 5 5 5 6 5 4 3 2 2 1 1 2 1 2 2 2
4 7 6 4 3 3 3 1 4 4 4 6 6 7 8 9 8 7 7 6 5 4 3 3 2 0 1 2 2 3 2 3 4 4 4 6 5 5 4 4 3 2 1 2 2 1 2 2 2
7 6 3 2 3 2 1 4 5 2 5 6 7 8 8 9 9 9 8 7 5 4 3 3 1 1 2 2 2 2 2 3 3 4 5 5 5 5 5 4 3 2 2 2 2 2 2 2 3
4 5 6 6 5 2 4 5 5 5 8 7 6 8 9 8 8 7 7 6 4 3 3 2 1 1 2 2 2 1 2 3 4 5 5 5 4 4 5 4 3 3 2 3 3 3 3 2 3
5 6 5 5 4 5 2 4 6 6 6 8 9 9 9 9 8 8 7 6 5 4 3 3 2 1 2 2 2 2 2 2 3 3 4 4 4 4 5 5 4 3 3 3 3 3 3 2 3
4 8 7 4 4 5 3 3 5 3 4 6 8 8 9 8 8 8 8 7 6 6 5 3 3 1 2 2 2 2 2 1 2 3 3 3 3 4 5 5 4 4 3 3 2 2 3 2 2
5 4 7 6 2 1 3 2 4 0 3 5 6 8 9 9 9 8 8 7 6 6 5 5 4 2 1 1 1 1 2 2 3 3 3 3 4 4 5 5 5 4 3 3 2 2 3 2 2
6 7 6 4 2 1 2 3 5 8 8 8 8 9 9 8 8 8 7 7 6 5 5 4 4 3 2 1 0 1 2 3 3 3 4 4 5 5 6 6 6 5 4 4 3 2 3 2 2
2 3 5 4 5 5 3 6 7 10 10 9 10 9 9 9 9 8 7 7 6 5 5 5 4 3 2 2 1 1 2 3 3 3 3 4 4 5 6 6 6 6 5 5 4 4 4 3 3
6 5 6 4 2 4 4 7 6 9 9 9 9 8 8 9 8 8 8 6 5 5 5 5 5 4 4 3 1 0 1 2 3 3 4 4 4 5 5 5 6 6 6 5 5 5 5 4 4
Wind_Direction
187 165 119 81 57 54 332 303 306 9 54 54 69 76 79 56 72 114 242 143 140 147 156 152 148 147 144 143 145 145 146 147 149 150 152 153 151 146 140 138 133 128 123 111 97 88 79 68 55
165 147 130 65 81 89 312 296 39 75 136 121 72 66 68 64 67 88 62 126 139 144 148 150 151 150 150 151 155 158 160 164 166 170 176 180 183 185 182 180 176 170 165 160 155 141 118 88 48
166 164 142 93 110 157 192 244 161 86 86 93 76 54 63 50 47 79 120 130 129 128 137 147 148 151 155 159 163 166 171 178 184 190 200 206 208 210 211 210 207 206 206 202 199 188 180 181 229
151 93 60 84 112 204 181 209 135 101 66 60 95 70 57 25 64 115 123 129 125 123 135 144 145 149 153 159 168 177 190 200 205 207 217 224 227 227 225 223 225 224 223 222 213 206 205 206 222
87 95 68 73 140 253 87 132 88 84 80 78 92 91 73 29 94 117 125 129 128 129 134 141 142 150 157 168 182 194 206 216 222 224 227 231 235 236 234 230 230 230 230 226 217 213 218 219 224
66 77 87 127 174 353 32 91 89 90 104 107 97 103 101 116 111 124 120 121 128 134 133 138 149 160 174 184 194 213 223 226 232 238 238 238 240 239 237 235 234 233 231 227 219 219 225 228 230
134 107 137 158 158 281 158 102 99 99 90 92 114 109 136 168 151 142 124 113 111 115 116 109 125 196 233 232 231 240 245 246 247 248 247 245 244 243 242 239 238 235 231 227 222 221 225 230 232
132 100 95 152 163 203 185 108 108 104 94 77 96 127 164 193 159 123 103 94 98 100 97 88 22 315 288 281 266 264 262 264 264 261 257 253 249 246 246 245 243 240 234 229 225 223 225 230 234
87 72 154 199 183 195 174 123 89 75 86 61 71 128 155 149 132 113 98 73 78 83 56 44 359 338 312 298 292 289 281 276 275 271 266 262 255 252 253 252 248 244 239 233 228 225 227 231 235
83 118 223 224 196 185 165 143 134 98 92 93 96 105 122 128 130 128 125 120 100 76 47 33 18 355 343 329 323 305 293 286 280 272 269 265 255 253 255 260 257 248 241 237 232 229 229 231 231
124 170 209 301 224 186 153 135 125 130 141 167 158 151 138 131 130 131 127 127 120 107 73 53 51 34 12 335 324 311 306 299 287 278 271 264 261 262 261 264 269 258 245 238 239 234 229 223 221
118 212 179 242 247 170 148 133 107 150 171 172 162 148 139 133 137 134 123 117 104 83 66 43 36 26 10 2 339 324 318 308 297 288 279 266 262 261 262 255 257 253 246 236 237 234 230 226 222
152 193 247 284 305 99 101 127 128 145 153 149 140 133 137 137 134 128 124 118 104 87 68 39 41 35 15 3 334 344 324 315 311 308 299 275 258 262 256 258 255 250 242 233 231 233 233 230 226
177 160 157 205 59 75 108 124 121 174 160 145 139 145 150 149 141 129 117 111 106 93 79 42 51 35 22 5 345 332 333 328 331 331 323 313 285 264 258 258 256 251 241 236 232 229 234 231 224
118 112 90 281 289 114 106 166 195 178 164 155 158 164 161 155 139 136 137 133 125 110 82 44 65 41 26 7 353 351 340 343 344 339 337 335 317 297 273 269 265 257 247 236 238 242 235 241 239
90 92 166 254 190 200 122 237 225 177 163 172 178 174 163 157 143 144 142 139 126 109 84 46 47 44 28 12 354 344 345 348 346 343 343 345 345 335 321 292 278 274 260 234 235 232 235 245 242
68 155 229 251 207 187 187 233 218 186 173 184 186 177 168 147 141 148 148 138 127 117 101 70 52 45 25 9 353 345 344 343 342 343 339 341 344 345 335 304 292 293 257 240 252 225 217 230 241
190 219 231 224 210 186 215 232 206 200 186 189 186 175 160 150 162 160 146 134 127 106 93 78 57 39 20 5 354 349 350 343 340 339 333 337 339 341 341 311 310 311 285 253 248 238 224 222 225
160 170 224 236 203 185 219 228 208 201 191 188 182 164 152 157 163 149 141 132 112 88 83 72 60 26 18 6 354 345 338 330 330 329 334 337 338 339 334 326 316 319 290 269 259 236 235 234 193
149 144 226 256 213 195 223 248 219 193 196 189 179 164 154 151 152 150 142 127 114 107 96 77 64 41 14 345 314 291 296 301 303 319 332 336 333 334 335 332 319 310 303 320 307 256 234 232 175
149 177 201 213 270 284 142 344 221 198 189 188 172 159 156 161 165 163 148 139 130 124 123 101 93 63 12 355 347 345 349 339 342 338 335 326 328 328 327 317 319 317 317 293 280 248 203 230 229
202 211 199 180 113 279 151 204 268 208 188 189 176 160 162 163 163 161 154 151 152 161 148 128 126 88 345 6 13 2 354 331 308 308 314 323 329 331 329 322 319 319 313 296 285 263 221 202 224
201 208 187 152 134 343 17 138 271 185 201 213 197 180 172 171 165 163 162 164 165 167 157 152 154 280 326 358 10 7 343 316 314 323 334 336 332 332 334 330 330 320 308 295 289 285 254 212 207
158 66 44 48 68 329 237 149 235 219 208 198 195 186 178 174 165 160 162 161 163 167 163 155 153 285 322 350 8 12 346 342 347 343 341 337 331 330 334 329 333 320 308 304 293 277 263 241 229
85 80 33 7 11 264 250 140 232 237 200 179 180 184 181 172 162 162 165 171 177 183 186 177 164 263 306 336 349 330 325 334 335 325 331 333 332 325 324 329 319 312 302 298 302 296 282 256 244
158 132 149 185 226 283 344 200 251 250 177 163 166 173 177 179 176 176 180 181 188 192 187 184 182 221 287 317 318 314 328 323 318 317 318 322 316 307 314 322 323 322 323 323 320 309 294 276 258
127 140 164 141 186 271 303 328 327 174 179 178 180 181 189 190 189 186 186 186 193 194 194 189 181 194 257 287 322 336 346 339 329 329 331 327 326 328 335 339 342 342 342 337 339 326 309 307 283
141 142 95 112 142 312 306 235 225 217 219 217 206 201 204 197 194 189 188 192 196 195 193 186 176 183 209 237 290 13 336 329 333 345 348 344 343 349 354 359 359 359 0 356 359 341 325 334 317
143 115 108 118 150 153 229 261 224 204 206 204 211 207 199 193 191 192 195 198 195 187 182 179 180 179 197 216 236 15 337 340 355 353 341 345 350 356 5 6 11 13 11 8 13 359 359 354 335
168 167 142 145 207 164 181 262 262 197 199 193 200 201 196 192 190 192 192 192 191 192 191 189 190 191 206 206 187 354 349 5 9 351 342 351 357 359 6 14 19 17 13 11 13 3 360 356 343
Height
1532 1532 1532 1534 1535 1540 1541 1533 1526 1523 1523 1524 1522 1523 1527 1530 1534 1541 1538 1535 1536 1537 1538 1540 1540 1540 1541 1541 1541 1541 1541 1541 1542 1542 1542 1542 1542 1542 1542 1542 1541 1541 1541 1541 1541 1541 1541 1541 1541
1531 1532 1533 1533 1538 1548 1543 1532 1527 1524 1524 1524 1524 1527 1529 1532 1534 1536 1536 1536 1537 1537 1538 1539 1540 1540 1540 1540 1540 1540 1540 1540 1540 1540 1541 1541 1541 1541 1541 1540 1540 1540 1540 1540 1540 1540 1540 1540 1540
1531 1532 1533 1533 1539 1544 1540 1531 1527 1524 1524 1524 1527 1530 1532 1535 1536 1536 1536 1536 1537 1538 1538 1539 1539 1539 1539 1539 1539 1539 1539 1539 1539 1539 1539 1539 1539 1539 1539 1539 1539 1539 1539 1539 1539 1539 1539 1539 1540
1531 1532 1532 1536 1539 1534 1531 1528 1525 1525 1526 1526 1528 1533 1535 1537 1537 1536 1537 1537 1538 1538 1538 1538 1538 1538 1538 1538 1538 1537 1537 1537 1537 1537 1537 1538 1538 1537 1537 1537 1537 1537 1537 1537 1538 1538 1538 1538 1539
1531 1530 1535 1540 1538 1532 1528 1526 1525 1525 1527 1529 1530 1535 1538 1539 1538 1537 1537 1538 1538 1538 1538 1538 1537 1537 1537 1536 1536 1536 1535 1535 1535 1535 1535 1535 1536 1536 1536 1536 1535 1535 1536 1536 1536 1536 1536 1537 1537
1531 1530 1541 1545 1539 1532 1529 1527 1526 1527 1529 1531 1532 1535 1539 1540 1539 1539 1538 1538 1538 1538 1538 1537 1537 1536 1536 1535 1534 1534 1533 1533 1533 1533 1533 1533 1533 1533 1533 1533 1533 1533 1533 1534 1534 1534 1535 1535 1536
1530 1532 1538 1539 1539 1535 1530 1528 1528 1528 1529 1531 1532 1536 1539 1540 1539 1539 1539 1539 1538 1538 1538 1537 1536 1535 1534 1533 1532 1532 1531 1530 1530 1530 1530 1530 1530 1531 1531 1531 1531 1531 1531 1531 1532 1532 1533 1533 1534
1529 1532 1537 1538 1538 1535 1529 1528 1529 1528 1531 1532 1533 1535 1538 1539 1539 1540 1539 1539 1539 1538 1537 1536 1535 1534 1533 1531 1530 1530 1529 1528 1527 1527 1527 1527 1527 1527 1528 1528 1528 1528 1528 1529 1530 1530 1531 1531 1532
1528 1536 1540 1537 1535 1531 1527 1528 1530 1530 1531 1532 1533 1535 1537 1538 1539 1539 1539 1539 1538 1538 1537 1536 1534 1533 1531 1530 1529 1527 1526 1525 1524 1524 1523 1523 1523 1524 1524 1525 1525 1525 1526 1526 1527 1527 1528 1529 1530
1528 1538 1535 1529 1528 1527 1526 1527 1529 1531 1532 1534 1535 1536 1537 1538 1539 1539 1538 1538 1537 1537 1535 1534 1532 1531 1529 1528 1527 1525 1524 1523 1522 1521 1521 1520 1520 1520 1520 1521 1521 1522 1522 1523 1524 1525 1525 1526 1527
1527 1532 1529 1526 1525 1525 1526 1527 1528 1530 1533 1533 1534 1535 1537 1538 1538 1538 1537 1537 1536 1535 1534 1532 1531 1529 1527 1526 1524 1523 1522 1520 1519 1518 1518 1517 1517 1517 1517 1517 1518 1518 1519 1520 1521 1521 1522 1523 1525
1528 1528 1527 1527 1525 1525 1525 1527 1528 1528 1530 1532 1533 1534 1535 1536 1537 1537 1536 1536 1535 1534 1532 1531 1529 1527 1525 1523 1522 1520 1519 1518 1517 1516 1515 1514 1514 1513 1514 1514 1514 1515 1515 1516 1517 1518 1519 1520 1522
1526 1527 1526 1527 1525 1525 1525 1526 1527 1529 1530 1531 1533 1534 1535 1535 1535 1535 1535 1534 1534 1532 1531 1529 1527 1525 1523 1521 1519 1518 1516 1515 1514 1513 1512 1511 1511 1510 1510 1510 1511 1511 1512 1512 1513 1515 1516 1517 1518
1523 1524 1525 1525 1525 1526 1526 1528 1528 1530 1530 1530 1531 1532 1533 1533 1534 1534 1534 1533 1532 1531 1529 1527 1525 1523 1521 1519 1517 1515 1514 1512 1511 1510 1509 1508 1508 1507 1507 1507 1507 1507 1508 1509 1510 1511 1512 1513 1515
1522 1526 1527 1527 1525 1526 1527 1529 1526 1527 1528 1529 1530 1531 1532 1532 1532 1532 1532 1531 1531 1529 1528 1526 1524 1522 1519 1517 1515 1513 1511 1510 1508 1507 1506 1505 1505 1504 1504 1503 1503 1503 1504 1505 1506 1507 1508 1509 1511
1524 1529 1534 1527 1525 1525 1530 1534 1525 1525 1527 1528 1529 1529 1530 1531 1531 1531 1531 1530 1529 1528 1526 1524 1522 1520 1518 1515 1513 1511 1509 1507 1506 1505 1504 1503 1502 1501 1501 1500 1500 1500 1500 1501 1502 1503 1504 1505 1507
1529 1535 1533 1528 1523 1525 1528 1530 1523 1524 1526 1527 1527 1528 1529 1529 1530 1530 1530 1529 1528 1526 1525 1523 1521 1519 1516 1514 1511 1509 1507 1505 1504 1502 1501 1500 1499 1498 1497 1497 1497 1497 1497 1498 1499 1500 1501 1502 1503
1533 1533 1531 1529 1522 1523 1526 1525 1522 1523 1525 1525 1526 1526 1527 1528 1529 1529 1529 1528 1527 1525 1523 1522 1520 1518 1515 1513 1510 1508 1505 1504 1502 1500 1499 1498 1497 1496 1495 1494 1494 1494 1494 1495 1495 1496 1497 1499 1500
1522 1527 1529 1523 1516 1520 1523 1522 1521 1522 1523 1524 1525 1525 1526 1527 1528 1529 1528 1527 1526 1524 1522 1520 1518 1516 1514 1511 1508 1506 1504 1502 1500 1499 1497 1496 1494 1493 1492 1492 1491 1491 1491 1492 1492 1493 1494 1495 1497
1519 1525 1525 1519 1514 1518 1522 1521 1518 1519 1520 1521 1522 1523 1524 1526 1527 1527 1527 1526 1524 1523 1521 1520 1518 1515 1513 1510 1508 1506 1503 1501 1499 1497 1496 1494 1492 1491 1490 1490 1489 1489 1489 1489 1490 1490 1491 1492 1494
1520 1523 1522 1521 1516 1517 1521 1527 1522 1519 1520 1521 1522 1522 1523 1524 1525 1525 1525 1524 1523 1522 1521 1519 1517 1515 1513 1510 1508 1505 1503 1501 1498 1496 1494 1493 1491 1490 1489 1488 1487 1487 1487 1487 1487 1488 1488 1489 1491
1521 1513 1513 1515 1525 1531 1526 1541 1528 1522 1521 1520 1521 1521 1522 1523 1523 1523 1523 1523 1522 1521 1520 1518 1516 1514 1512 1510 1507 1505 1502 1500 1498 1495 1493 1492 1490 1489 1488 1487 1486 1485 1485 1485 1485 1485 1486 1487 1488
1512 1507 1511 1514 1521 1530 1529 1539 1535 1523 1524 1521 1519 1520 1520 1521 1521 1522 1522 1522 1521 1520 1519 1517 1516 1514 1512 1509 1507 1505 1502 1500 1497 1495 1493 1491 1489 1488 1487 1485 1485 1484 1483 1483 1483 1483 1483 1484 1485
1505 1511 1517 1525 1532 1541 1528 1537 1536 1527 1520 1517 1517 1518 1519 1520 1520 1521 1521 1521 1520 1520 1518 1517 1515 1513 1511 1509 1507 1504 1502 1499 1497 1495 1492 1490 1488 1487 1486 1485 1483 1482 1482 1481 1481 1481 1481 1482 1482
1509 1526 1543 1543 1551 1545 1526 1531 1531 1516 1512 1513 1514 1516 1517 1518 1519 1519 1519 1520 1519 1518 1518 1516 1515 1513 1511 1509 1507 1504 1502 1500 1497 1495 1492 1490 1488 1486 1485 1484 1482 1481 1480 1480 1479 1479 1479 1479 1480
1511 1523 1543 1551 1551 1544 1528 1531 1524 1512 1511 1511 1513 1515 1516 1517 1517 1518 1518 1518 1518 1517 1517 1516 1514 1512 1511 1508 1506 1504 1502 1500 1497 1495 1492 1490 1488 1486 1484 1483 1481 1480 1479 1478 1478 1477 1477 1477 1477
1510 1519 1522 1537 1538 1544 1538 1528 1519 1513 1513 1513 1513 1514 1514 1515 1516 1516 1517 1517 1517 1516 1516 1515 1513 1512 1510 1508 1506 1504 1502 1500 1498 1495 1493 1490 1488 1486 1484 1482 1480 1479 1478 1477 1476 1476 1475 1475 1475
1505 1513 1527 1535 1544 1549 1537 1532 1531 1518 1515 1513 1512 1512 1512 1513 1514 1515 1515 1515 1515 1515 1515 1514 1513 1511 1510 1508 1506 1504 1502 1500 1498 1496 1493 1491 1489 1486 1484 1482 1480 1479 1477 1476 1475 1475 1474 1473 1473
1508 1512 1524 1536 1540 1549 1546 1537 1512 1510 1508 1509 1508 1509 1510 1511 1512 1513 1514 1514 1514 1514 1514 1513 1512 1511 1510 1508 1506 1504 1503 1501 1498 1496 1494 1491 1489 1486 1484 1482 1480 1479 1477 1476 1475 1474 1473 1472 1471
1504 1509 1520 1533 1535 1539 1545 1534 1503 1503 1503 1504 1505 1506 1508 1509 1510 1511 1512 1512 1513 1513 1513 1512 1511 1510 1509 1508 1506 1504 1503 1501 1499 1496 1494 1492 1490 1487 1485 1483 1481 1479 1477 1476 1474 1473 1472 1471 1470